Weather History for Dallas Redbird, TX

Change the Weather History Date:

Tuesday, June 10, 2014

  Actual Average Record
Temperature  
Mean Temperature 75 °F -  
Max Temperature 84 °F 86 °F 98 °F (2006)
Min Temperature 66 °F 68 °F 66 °F (2014)
Cooling Degree Days 10    
Growing Degree Days 25 (Base 50)    
Moisture  
Dew Point 59 °F    
Average Humidity 59    
Maximum Humidity 73    
Minimum Humidity 43    
Precipitation  
Precipitation 0.00 in - - ()
Sea Level Pressure  
Sea Level Pressure 29.80 in    
Wind  
Wind Speed 11 mph (WNW)    
Max Wind Speed 17 mph    
Max Gust Speed 24 mph    
Visibility 10 miles    
Events      
Averages and records for this station are not official NWS values.
T = Trace of Precipitation, MM = Missing Value Source: NWS Daily Summary

Daily Weather History Graph

Daily Weather History Graph

Search for Another Location

Airport:

Trip Planner

Search our weather history database for the weather conditions in past years. The results will help you decide how hot, cold, wet, or windy it might be!

Date:

Astronomy

Jun. 10, 2014 Rise Set
Actual Time 6:19 AM CDT 8:34 PM CDT
Civil Twilight 5:50 AM CDT 9:03 PM CDT
Nautical Twilight 5:15 AM CDT 9:38 PM CDT
Astronomical Twilight 4:38 AM CDT 10:16 PM CDT
Moon 6:08 PM CDT (6/10) 4:16 AM CDT (6/10)
Length of Visible Light 15h 12m
Length of Day
14h 15m
Waxing Gibbous, 92% of the Moon is Illuminated
Jun 10
Waxing Gibbous
Jun 12
Full
Jun 19
Last Quarter
Jun 27
New
Jul 5
First Quarter

Hourly Weather History & Observations

Time (CDT) Temp. Heat Index Dew Point Humidity Pressure Visibility Wind Dir Wind Speed Gust Speed Precip Events Conditions
12:53 AM 72.0 °F - 59.0 °F 64% 29.75 in 10.0 mi WNW 11.5 mph 16.1 mph N/A   Clear
1:53 AM 70.0 °F - 55.9 °F 61% 29.75 in 10.0 mi WNW 9.2 mph - N/A   Clear
2:53 AM 69.1 °F - 57.0 °F 65% 29.75 in 10.0 mi West 6.9 mph - N/A   Clear
3:53 AM 68.0 °F - 57.0 °F 68% 29.75 in 10.0 mi WNW 12.7 mph 18.4 mph N/A   Clear
4:53 AM 66.9 °F - 57.0 °F 70% 29.77 in 10.0 mi West 10.4 mph - N/A   Clear
5:53 AM 66.0 °F - 57.0 °F 73% 29.78 in 10.0 mi West 9.2 mph - N/A   Clear
6:53 AM 66.9 °F - 57.0 °F 70% 29.79 in 10.0 mi West 8.1 mph - N/A   Partly Cloudy
7:53 AM 68.0 °F - 57.0 °F 68% 29.80 in 10.0 mi WSW 9.2 mph - N/A   Overcast
8:53 AM 71.1 °F - 57.9 °F 63% 29.81 in 10.0 mi West 12.7 mph 19.6 mph N/A   Scattered Clouds
10:53 AM 75.9 °F - 60.1 °F 58% 29.83 in 10.0 mi WNW 17.3 mph 24.2 mph N/A   Mostly Cloudy
12:53 PM 81.0 °F 81.7 °F 61.0 °F 50% 29.84 in 10.0 mi WNW 16.1 mph 24.2 mph N/A   Mostly Cloudy
2:53 PM 82.9 °F 83.2 °F 60.1 °F 46% 29.83 in 10.0 mi WNW 15.0 mph 21.9 mph N/A   Scattered Clouds
4:53 PM 84.9 °F 84.8 °F 60.1 °F 43% 29.81 in 10.0 mi NW 12.7 mph 21.9 mph N/A   Scattered Clouds
5:53 PM 84.9 °F 84.8 °F 60.1 °F 43% 29.80 in 10.0 mi WNW 13.8 mph - N/A   Mostly Cloudy
6:53 PM 84.0 °F 83.8 °F 59.0 °F 43% 29.79 in 10.0 mi WNW 12.7 mph - N/A   Clear
7:53 PM 82.0 °F 82.1 °F 59.0 °F 45% 29.80 in 10.0 mi WNW 9.2 mph - N/A   Clear
8:53 PM 77.0 °F - 59.0 °F 54% 29.81 in 10.0 mi WNW 5.8 mph - N/A   Clear
10:53 PM 72.0 °F - 60.1 °F 66% 29.84 in 10.0 mi West 5.8 mph - N/A   Clear
11:53 PM 73.0 °F - 60.1 °F 64% 29.85 in 10.0 mi WNW 4.6 mph - N/A   Clear